TimeMST,TemperatureF,Dew PointF,Humidity,Sea Level PressureIn,VisibilityMPH,Wind Direction,Wind SpeedMPH,Gust SpeedMPH,PrecipitationIn,Events,Conditions,WindDirDegrees,DateUTC
12:15 AM,42.6,12.7,30,30.07,10.0,NNW,17.3,28.8,N/A,,Clear,340,2013-01-09 07:15:00
12:35 AM,41.0,13.1,32,30.08,10.0,North,18.4,24.2,N/A,,Clear,350,2013-01-09 07:35:00
12:55 AM,41.2,12.9,32,30.10,10.0,North,19.6,25.3,N/A,,Clear,10,2013-01-09 07:55:00
1:15 AM,41.4,12.9,31,30.12,10.0,North,12.7,-,N/A,,Clear,360,2013-01-09 08:15:00
1:35 AM,40.3,12.9,33,30.13,10.0,South,5.8,-,N/A,,Clear,190,2013-01-09 08:35:00
1:55 AM,40.1,12.9,33,30.13,10.0,North,8.1,-,N/A,,Clear,350,2013-01-09 08:55:00
2:15 AM,39.4,13.1,34,30.16,10.0,East,4.6,-,N/A,,Clear,80,2013-01-09 09:15:00
2:35 AM,37.6,13.6,38,30.16,10.0,North,12.7,-,N/A,,Clear,350,2013-01-09 09:35:00
2:55 AM,37.9,13.5,37,30.15,10.0,NNW,19.6,25.3,N/A,,Clear,340,2013-01-09 09:55:00
3:15 AM,38.5,13.1,35,30.15,10.0,NNW,21.9,29.9,N/A,,Clear,340,2013-01-09 10:15:00
3:35 AM,38.3,13.3,36,30.16,10.0,NNW,19.6,26.5,N/A,,Clear,340,2013-01-09 10:35:00
3:55 AM,37.9,13.6,37,30.16,10.0,North,20.7,25.3,N/A,,Clear,350,2013-01-09 10:55:00
4:15 AM,37.9,13.8,37,30.16,10.0,NNW,19.6,-,N/A,,Clear,340,2013-01-09 11:15:00
4:35 AM,39.6,14.0,35,30.16,10.0,NNW,21.9,27.6,N/A,,Clear,340,2013-01-09 11:35:00
4:55 AM,39.9,14.0,35,30.17,10.0,NNW,19.6,26.5,N/A,,Clear,340,2013-01-09 11:55:00
5:15 AM,39.2,14.4,36,30.18,10.0,North,20.7,26.5,N/A,,Clear,350,2013-01-09 12:15:00
5:35 AM,38.8,14.4,37,30.18,10.0,North,20.7,25.3,N/A,,Clear,350,2013-01-09 12:35:00
5:55 AM,38.5,14.5,38,30.21,10.0,NNW,20.7,25.3,N/A,,Clear,340,2013-01-09 12:55:00
6:15 AM,37.9,14.9,39,30.21,10.0,North,15.0,24.2,N/A,,Clear,350,2013-01-09 13:15:00
6:35 AM,37.0,15.3,41,30.24,10.0,North,13.8,-,N/A,,Clear,350,2013-01-09 13:35:00
6:55 AM,38.5,14.7,38,30.24,10.0,North,16.1,19.6,N/A,,Clear,10,2013-01-09 13:55:00
7:15 AM,38.1,15.1,39,30.25,10.0,North,12.7,-,N/A,,Clear,10,2013-01-09 14:15:00
7:35 AM,36.1,16.0,44,30.27,10.0,East,6.9,17.3,N/A,,Clear,90,2013-01-09 14:35:00
7:55 AM,33.1,16.9,51,30.28,10.0,NNE,8.1,-,N/A,,Clear,20,2013-01-09 14:55:00
8:15 AM,36.1,17.1,46,30.28,10.0,North,9.2,-,N/A,,Clear,360,2013-01-09 15:15:00
8:35 AM,38.8,17.6,42,30.29,10.0,North,3.5,-,N/A,,Clear,360,2013-01-09 15:35:00
8:55 AM,43.3,17.1,35,30.30,10.0,North,11.5,-,N/A,,Clear,360,2013-01-09 15:55:00
9:15 AM,43.2,17.6,36,30.30,10.0,NNW,11.5,-,N/A,,Clear,330,2013-01-09 16:15:00
9:35 AM,44.1,17.2,34,30.30,10.0,NNW,10.4,-,N/A,,Clear,330,2013-01-09 16:35:00
9:55 AM,45.0,17.6,33,30.30,10.0,NW,9.2,-,N/A,,Clear,320,2013-01-09 16:55:00
10:15 AM,48.4,18.0,30,30.29,10.0,North,13.8,17.3,N/A,,Clear,350,2013-01-09 17:15:00
10:35 AM,49.1,18.1,29,30.28,10.0,North,16.1,-,N/A,,Clear,360,2013-01-09 17:35:00
10:55 AM,50.5,18.3,28,30.27,10.0,North,17.3,23.0,N/A,,Clear,350,2013-01-09 17:55:00
11:15 AM,50.7,17.4,27,30.25,10.0,NNW,17.3,23.0,N/A,,Clear,340,2013-01-09 18:15:00
11:35 AM,52.2,17.8,26,30.24,10.0,North,15.0,18.4,N/A,,Clear,360,2013-01-09 18:35:00
11:55 AM,53.1,17.2,24,30.24,10.0,North,15.0,19.6,N/A,,Clear,10,2013-01-09 18:55:00
12:15 PM,53.6,16.9,24,30.22,10.0,North,16.1,19.6,N/A,,Clear,10,2013-01-09 19:15:00
12:35 PM,54.5,16.7,23,30.20,10.0,North,13.8,21.9,N/A,,Clear,10,2013-01-09 19:35:00
12:55 PM,55.6,16.9,22,30.19,10.0,North,13.8,19.6,N/A,,Clear,360,2013-01-09 19:55:00
1:15 PM,56.5,17.4,22,30.19,10.0,North,13.8,18.4,N/A,,Clear,360,2013-01-09 20:15:00
1:35 PM,57.2,18.0,22,30.17,10.0,North,12.7,18.4,N/A,,Clear,350,2013-01-09 20:35:00
1:55 PM,57.6,18.9,22,30.16,10.0,NNW,12.7,19.6,N/A,,Clear,340,2013-01-09 20:55:00
2:15 PM,57.7,20.8,24,30.16,10.0,NNE,12.7,20.7,N/A,,Clear,20,2013-01-09 21:15:00
2:35 PM,58.1,19.6,22,30.15,10.0,NNE,6.9,17.3,N/A,,Clear,20,2013-01-09 21:35:00
2:55 PM,58.1,23.0,26,30.15,10.0,NE,6.9,10.4,N/A,,Clear,40,2013-01-09 21:55:00
3:15 PM,58.1,22.8,26,30.15,10.0,NNE,15.0,-,N/A,,Clear,30,2013-01-09 22:15:00
3:35 PM,57.7,25.5,29,30.14,10.0,NNE,10.4,-,N/A,,Clear,30,2013-01-09 22:35:00
3:55 PM,57.6,21.4,25,30.14,10.0,NNE,12.7,-,N/A,,Clear,30,2013-01-09 22:55:00
4:15 PM,57.2,15.6,20,30.14,10.0,NNE,10.4,-,N/A,,Clear,20,2013-01-09 23:15:00
4:35 PM,56.3,16.3,21,30.14,10.0,NNE,8.1,-,N/A,,Clear,20,2013-01-09 23:35:00
4:55 PM,54.9,16.5,22,30.15,10.0,NE,6.9,-,N/A,,Clear,40,2013-01-09 23:55:00
5:15 PM,52.5,17.6,25,30.15,10.0,NNE,5.8,-,N/A,,Clear,30,2013-01-10 00:15:00
5:35 PM,48.9,18.1,30,30.15,10.0,NNE,8.1,-,N/A,,Clear,20,2013-01-10 00:35:00
5:55 PM,47.3,18.5,32,30.15,10.0,NNE,8.1,-,N/A,,Clear,20,2013-01-10 00:55:00
6:55 PM,45.1,19.4,36,30.15,10.0,North,6.9,-,N/A,,Clear,350,2013-01-10 01:55:00
7:15 PM,41.5,20.5,43,30.15,10.0,NW,8.1,-,N/A,,Clear,320,2013-01-10 02:15:00
7:35 PM,42.1,20.3,42,30.15,10.0,NNW,6.9,-,N/A,,Clear,340,2013-01-10 02:35:00
7:55 PM,42.4,19.4,40,30.15,10.0,North,9.2,-,N/A,,Clear,350,2013-01-10 02:55:00
8:15 PM,41.4,19.2,41,30.15,10.0,NNW,9.2,-,N/A,,Clear,330,2013-01-10 03:15:00
8:35 PM,40.6,19.2,42,30.15,10.0,NW,8.1,-,N/A,,Clear,320,2013-01-10 03:35:00
8:55 PM,40.5,18.5,41,30.15,10.0,WNW,6.9,-,N/A,,Clear,290,2013-01-10 03:55:00
9:15 PM,37.9,18.9,46,30.15,10.0,WNW,8.1,-,N/A,,Clear,300,2013-01-10 04:15:00
9:35 PM,38.1,18.3,45,30.15,10.0,NNW,6.9,-,N/A,,Clear,330,2013-01-10 04:35:00
9:55 PM,38.7,17.8,43,30.15,10.0,Calm,Calm,-,N/A,,Clear,0,2013-01-10 04:55:00
10:15 PM,40.3,16.9,39,30.13,10.0,NW,6.9,-,N/A,,Clear,320,2013-01-10 05:15:00
10:35 PM,39.2,17.4,41,30.14,10.0,NW,9.2,-,N/A,,Clear,320,2013-01-10 05:35:00
10:55 PM,39.6,16.9,40,30.13,10.0,NNW,11.5,-,N/A,,Clear,330,2013-01-10 05:55:00
11:15 PM,40.5,16.2,37,30.13,10.0,NW,9.2,-,N/A,,Clear,320,2013-01-10 06:15:00
11:35 PM,38.3,17.4,43,30.12,10.0,NW,8.1,-,N/A,,Clear,310,2013-01-10 06:35:00
11:55 PM,35.8,17.4,47,30.12,10.0,NNW,6.9,-,N/A,,Clear,330,2013-01-10 06:55:00